TRA51K LGSK-LGMT

Flight info

Callsign TRA51K
Flight time 0h 35m
Altitude 21000
Route ETEKA UW58 ATROX DCT ETRUD DCT ERESO
Aircraft B738/M-SDE2E3FGHIJ1RWXYZ/LB1

Departure

Time 2026-05-05 12:42
Airport Skiathos Island National Airport (LGSK)

Arrival

Time 2026-05-05 13:17
Airport Mytilene International Airport (LGMT)
Time Latitude Longitude Altitude Speed Heading
2026-05-05 12:26 39.17880 23.50208 51 ft 0 kts 288°
2026-05-05 12:31 39.17880 23.50209 51 ft 1 kts 288°
2026-05-05 12:31 39.17875 23.50229 48 ft 3 kts 288°
2026-05-05 12:32 39.17868 23.50254 45 ft 3 kts 289°
2026-05-05 12:32 39.17862 23.50278 43 ft 3 kts 278°
2026-05-05 12:32 39.17862 23.50299 42 ft 3 kts 230°
2026-05-05 12:32 39.17869 23.50307 42 ft 2 kts 198°
2026-05-05 12:33 39.17885 23.50313 42 ft 2 kts 198°
2026-05-05 12:33 39.17889 23.50315 42 ft 1 kts 198°
2026-05-05 12:35 39.17888 23.50315 42 ft 1 kts 198°
2026-05-05 12:35 39.17865 23.50305 41 ft 6 kts 198°
2026-05-05 12:35 39.17822 23.50287 41 ft 7 kts 198°
2026-05-05 12:35 39.17780 23.50269 40 ft 6 kts 198°
2026-05-05 12:36 39.17736 23.50258 39 ft 6 kts 172°
2026-05-05 12:36 39.17732 23.50259 39 ft 0 kts 166°
2026-05-05 12:39 39.17723 23.50263 39 ft 4 kts 154°
2026-05-05 12:39 39.17697 23.50325 40 ft 9 kts 126°
2026-05-05 12:39 39.17619 23.50316 38 ft 17 kts 199°
2026-05-05 12:39 39.17471 23.50251 32 ft 26 kts 199°
2026-05-05 12:40 39.17286 23.50168 23 ft 30 kts 199°
2026-05-05 12:40 39.17131 23.50100 20 ft 19 kts 198°
2026-05-05 12:40 39.17047 23.50084 17 ft 8 kts 173°
2026-05-05 12:40 39.17027 23.50062 15 ft 3 kts 270°
2026-05-05 12:41 39.17046 23.50053 16 ft 3 kts 20°
2026-05-05 12:41 39.17075 23.50073 18 ft 9 kts 21°
2026-05-05 12:41 39.17422 23.50229 31 ft 103 kts 19°
2026-05-05 12:41 39.18366 23.50653 257 ft 168 kts 19°
2026-05-05 12:42 39.19469 23.51186 1373 ft 168 kts 21°
2026-05-05 12:42 39.20585 23.51730 2287 ft 178 kts 20°
2026-05-05 12:42 39.21835 23.52347 2881 ft 209 kts 19°
2026-05-05 12:42 39.23285 23.53004 3349 ft 232 kts 19°
2026-05-05 12:43 39.24888 23.53722 3778 ft 258 kts 19°
2026-05-05 12:43 39.26491 23.54903 4496 ft 274 kts 45°
2026-05-05 12:43 39.27442 23.57014 5574 ft 276 kts 76°
2026-05-05 12:43 39.27476 23.59476 6623 ft 279 kts 102°
2026-05-05 12:44 39.26905 23.61885 7594 ft 284 kts 110°
2026-05-05 12:44 39.26228 23.64305 8525 ft 289 kts 110°
2026-05-05 12:44 39.25520 23.66761 9446 ft 294 kts 111°
2026-05-05 12:44 39.24796 23.69250 10338 ft 299 kts 111°
2026-05-05 12:45 39.24064 23.71777 11227 ft 303 kts 111°
2026-05-05 12:45 39.23325 23.74343 12029 ft 308 kts 111°
2026-05-05 12:45 39.22574 23.76957 12816 ft 313 kts 110°
2026-05-05 12:45 39.21816 23.79605 13585 ft 317 kts 110°
2026-05-05 12:46 39.21047 23.82293 14326 ft 322 kts 110°
2026-05-05 12:46 39.20268 23.85017 15038 ft 326 kts 110°
2026-05-05 12:46 39.19479 23.87773 15724 ft 330 kts 110°
2026-05-05 12:46 39.18679 23.90566 16391 ft 334 kts 110°
2026-05-05 12:47 39.17870 23.93390 17031 ft 338 kts 110°
2026-05-05 12:47 39.17049 23.96250 17652 ft 342 kts 110°
2026-05-05 12:47 39.16218 23.99141 18245 ft 346 kts 110°
2026-05-05 12:47 39.15572 24.02153 18666 ft 355 kts 98°
2026-05-05 12:48 39.15329 24.05331 18922 ft 367 kts 94°
2026-05-05 12:48 39.15164 24.08662 19204 ft 377 kts 94°
2026-05-05 12:48 39.15010 24.12066 19575 ft 383 kts 94°
2026-05-05 12:48 39.14843 24.15501 20067 ft 385 kts 94°
2026-05-05 12:49 39.14661 24.18920 20711 ft 381 kts 94°
2026-05-05 12:49 39.14467 24.22338 20969 ft 383 kts 95°
2026-05-05 12:49 39.14263 24.25752 20995 ft 383 kts 95°
2026-05-05 12:49 39.14053 24.29172 21003 ft 384 kts 95°
2026-05-05 12:50 39.13840 24.32597 21006 ft 384 kts 95°
2026-05-05 12:50 39.13625 24.36018 21005 ft 383 kts 95°
2026-05-05 12:50 39.13409 24.39440 21002 ft 383 kts 95°
2026-05-05 12:50 39.13192 24.42859 21001 ft 383 kts 95°
2026-05-05 12:51 39.12974 24.46275 21002 ft 383 kts 95°
2026-05-05 12:51 39.12756 24.49691 21002 ft 383 kts 95°
2026-05-05 12:51 39.12536 24.53105 21001 ft 383 kts 95°
2026-05-05 12:51 39.12316 24.56520 21002 ft 383 kts 95°
2026-05-05 12:52 39.12094 24.59939 21002 ft 383 kts 95°
2026-05-05 12:52 39.11872 24.63360 21000 ft 383 kts 95°
2026-05-05 12:52 39.11650 24.66773 21001 ft 383 kts 95°
2026-05-05 12:52 39.11425 24.70188 21001 ft 383 kts 95°
2026-05-05 12:53 39.11200 24.73608 21002 ft 383 kts 95°
2026-05-05 12:53 39.11000 24.77026 21001 ft 383 kts 94°
2026-05-05 12:53 39.10876 24.80447 20997 ft 383 kts 89°
2026-05-05 12:53 39.11171 24.83853 21000 ft 383 kts 79°
2026-05-05 12:54 39.12307 24.90555 21000 ft 384 kts 77°
2026-05-05 12:54 39.12891 24.93901 20999 ft 383 kts 77°
2026-05-05 12:54 39.13469 24.97252 21000 ft 383 kts 78°
2026-05-05 12:55 39.14038 25.00603 21001 ft 383 kts 78°
2026-05-05 12:55 39.14594 25.03910 21001 ft 383 kts 78°
2026-05-05 12:55 39.15153 25.07263 21001 ft 383 kts 78°
2026-05-05 12:55 39.15708 25.10617 21001 ft 383 kts 78°
2026-05-05 12:56 39.16262 25.13972 21001 ft 383 kts 78°
2026-05-05 12:56 39.16807 25.17286 20988 ft 373 kts 78°
2026-05-05 12:56 39.17339 25.20528 20752 ft 367 kts 78°
2026-05-05 12:56 39.17862 25.23722 20483 ft 363 kts 78°
2026-05-05 12:57 39.18380 25.26886 20126 ft 359 kts 78°
2026-05-05 12:57 39.18890 25.30013 19779 ft 355 kts 78°
2026-05-05 12:57 39.19394 25.33107 19427 ft 351 kts 78°
2026-05-05 12:57 39.19892 25.36166 19077 ft 347 kts 78°
2026-05-05 12:58 39.20386 25.39205 18726 ft 344 kts 78°
2026-05-05 12:58 39.20872 25.42208 18379 ft 341 kts 78°
2026-05-05 12:58 39.21356 25.45194 18032 ft 338 kts 78°
2026-05-05 12:58 39.21834 25.48152 17687 ft 336 kts 78°
2026-05-05 12:59 39.22306 25.51083 17346 ft 333 kts 78°
2026-05-05 12:59 39.22776 25.53997 17005 ft 330 kts 78°
2026-05-05 12:59 39.23240 25.56884 16667 ft 328 kts 78°
2026-05-05 13:00 39.24156 25.62597 15998 ft 323 kts 78°
2026-05-05 13:00 39.24608 25.65426 15665 ft 321 kts 78°
2026-05-05 13:01 39.25942 25.73793 14687 ft 314 kts 78°
2026-05-05 13:01 39.26379 25.76542 14367 ft 312 kts 78°
2026-05-05 13:01 39.26812 25.79271 14047 ft 310 kts 78°
2026-05-05 13:01 39.27244 25.81993 13678 ft 309 kts 78°
2026-05-05 13:02 39.27673 25.84701 13349 ft 308 kts 79°
2026-05-05 13:02 39.28098 25.87398 13023 ft 306 kts 79°
2026-05-05 13:02 39.28522 25.90083 12702 ft 304 kts 79°
2026-05-05 13:02 39.28712 25.92774 12361 ft 302 kts 98°
2026-05-05 13:03 39.28006 25.95286 12065 ft 298 kts 123°
2026-05-05 13:03 39.26638 25.97251 11763 ft 294 kts 140°
2026-05-05 13:03 39.25069 25.98933 11451 ft 292 kts 141°
2026-05-05 13:03 39.23494 26.00579 11140 ft 291 kts 141°
2026-05-05 13:04 39.21925 26.02225 10830 ft 290 kts 141°
2026-05-05 13:04 39.20369 26.03873 10492 ft 290 kts 141°
2026-05-05 13:04 39.18842 26.05500 10207 ft 288 kts 141°
2026-05-05 13:04 39.17319 26.07126 10064 ft 280 kts 141°
2026-05-05 13:05 39.15837 26.08710 9936 ft 273 kts 141°
2026-05-05 13:05 39.14391 26.10257 9710 ft 270 kts 141°
2026-05-05 13:05 39.12949 26.11801 9434 ft 269 kts 141°
2026-05-05 13:05 39.11510 26.13343 9153 ft 268 kts 141°
2026-05-05 13:06 39.10081 26.14874 8881 ft 267 kts 141°
2026-05-05 13:06 39.08671 26.16382 8763 ft 258 kts 141°
2026-05-05 13:06 39.07326 26.17822 8641 ft 245 kts 141°
2026-05-05 13:06 39.06049 26.19187 8508 ft 232 kts 141°
2026-05-05 13:07 39.04838 26.20482 8398 ft 221 kts 141°
2026-05-05 13:07 39.03665 26.21735 8312 ft 218 kts 141°
2026-05-05 13:07 39.02503 26.22977 8231 ft 217 kts 141°
2026-05-05 13:07 39.01340 26.24217 8105 ft 219 kts 141°
2026-05-05 13:08 39.00156 26.25479 7890 ft 223 kts 141°
2026-05-05 13:08 38.98958 26.26756 7668 ft 222 kts 141°
2026-05-05 13:08 38.97783 26.28007 7438 ft 217 kts 141°
2026-05-05 13:08 38.96709 26.29332 7205 ft 212 kts 128°
2026-05-05 13:09 38.95871 26.30866 7005 ft 208 kts 126°
2026-05-05 13:09 38.95036 26.32380 6797 ft 207 kts 126°
2026-05-05 13:09 38.94201 26.33879 6588 ft 206 kts 126°
2026-05-05 13:09 38.93366 26.35367 6381 ft 205 kts 127°
2026-05-05 13:10 38.92542 26.36830 6175 ft 205 kts 127°
2026-05-05 13:10 38.91704 26.38310 5966 ft 205 kts 127°
2026-05-05 13:10 38.90863 26.39792 5754 ft 205 kts 127°
2026-05-05 13:10 38.90019 26.41276 5543 ft 206 kts 127°
2026-05-05 13:11 38.89173 26.42764 5330 ft 207 kts 127°
2026-05-05 13:11 38.88437 26.44339 5092 ft 208 kts 105°
2026-05-05 13:11 38.88256 26.46172 4910 ft 207 kts 96°
2026-05-05 13:11 38.88090 26.48008 4689 ft 207 kts 97°
2026-05-05 13:12 38.87913 26.49845 4475 ft 207 kts 97°
2026-05-05 13:12 38.87946 26.51680 4241 ft 208 kts 75°
2026-05-05 13:12 38.88352 26.53447 4050 ft 206 kts 75°
2026-05-05 13:12 38.88727 26.55218 3835 ft 205 kts 75°
2026-05-05 13:13 38.89105 26.56981 3622 ft 204 kts 71°
2026-05-05 13:13 38.89882 26.58476 3407 ft 202 kts 44°
2026-05-05 13:13 38.90875 26.59742 3208 ft 201 kts 46°
2026-05-05 13:13 38.91840 26.61034 3000 ft 200 kts 46°
2026-05-05 13:14 38.92803 26.62327 2797 ft 199 kts 46°
2026-05-05 13:14 38.93748 26.63595 2606 ft 194 kts 46°
2026-05-05 13:14 38.94762 26.64665 2375 ft 185 kts 20°
2026-05-05 13:14 38.95978 26.64737 2173 ft 170 kts 350°
2026-05-05 13:15 38.97112 26.64448 1903 ft 163 kts 347°
2026-05-05 13:15 38.98205 26.64147 1711 ft 155 kts 348°
2026-05-05 13:15 38.99240 26.63876 1537 ft 154 kts 347°
2026-05-05 13:15 39.00280 26.63569 1358 ft 153 kts 344°
2026-05-05 13:16 39.01290 26.63153 1109 ft 151 kts 338°
2026-05-05 13:16 39.02266 26.62608 847 ft 154 kts 334°
2026-05-05 13:16 39.03191 26.61937 612 ft 151 kts 326°
2026-05-05 13:16 39.03780 26.61460 437 ft 152 kts 327°
2026-05-05 13:17 39.04962 26.60514 133 ft 152 kts 327°
2026-05-05 13:17 39.05823 26.59826 28 ft 118 kts 329°
2026-05-05 13:17 39.06167 26.59550 34 ft 72 kts 328°
2026-05-05 13:17 39.06557 26.59237 42 ft 29 kts 328°
2026-05-05 13:18 39.06646 26.59143 46 ft 10 kts 303°
2026-05-05 13:18 39.06671 26.59141 46 ft 4 kts 74°
2026-05-05 13:18 39.06657 26.59161 46 ft 8 kts 149°
2026-05-05 13:18 39.06577 26.59221 43 ft 18 kts 149°
2026-05-05 13:19 39.06454 26.59319 40 ft 23 kts 148°
2026-05-05 13:19 39.06315 26.59430 36 ft 23 kts 148°
2026-05-05 13:19 39.06213 26.59553 35 ft 20 kts 116°
2026-05-05 13:19 39.06164 26.59694 24 ft 11 kts 114°
2026-05-05 13:20 39.06124 26.59763 23 ft 8 kts 147°
2026-05-05 13:20 39.06106 26.59796 23 ft 4 kts 85°
2026-05-05 13:20 39.06123 26.59837 22 ft 6 kts 57°
2026-05-05 13:20 39.06140 26.59870 22 ft 0 kts 57°